Location: St. Louis
(38.6270°N, 90.1994°W)
Time: 13:16:04
(UTC-05:00)

BlueWalker 3 - Visible Passes

Search period start: 07 October 2024 00:00
Search period end: 17 October 2024 00:00
Orbit: 473 x 485 km, 53.2° (Epoch: 06 October)

Date Brightness Start Highest point End Pass type
(mag) Time Alt. Az. Time Alt. Az. Time Alt. Az.
07 Oct 2.6 05:24:09 37° NNW 05:24:09 37° NNW 05:27:23 10° NE visible
08 Oct 3.6 04:57:17 26° NNE 04:57:17 26° NNE 04:59:11 10° NE visible
08 Oct 4.2 06:32:59 10° NW 06:34:26 12° NNW 06:35:53 10° N visible
09 Oct 4.7 04:30:19 14° NE 04:30:19 14° NE 04:30:57 10° NE visible
09 Oct 4.1 06:04:31 10° NW 06:06:04 12° NNW 06:07:44 10° N visible
10 Oct 4.1 05:37:28 13° NNW 05:37:41 13° NNW 05:39:32 10° N visible
11 Oct 4.4 05:10:19 13° N 05:10:19 13° N 05:11:18 10° NNE visible
15 Oct 4.4 06:32:26 10° N 06:33:52 12° NNE 06:35:20 10° NE visible
16 Oct 4.5 06:04:04 10° N 06:05:15 11° NNE 06:06:26 10° NE visible
